Weather History for KCSQ - March, 2014

Change the Weather History Date:

Monday, March 10, 2014

  Actual Average (KLWD) Record (KLWD)
Temperature  
Mean Temperature 52 °F 38 °F  
Max Temperature 68 °F 47 °F 74 °F (1967)
Min Temperature 35 °F 28 °F 12 °F (1965)
Degree Days  
Heating Degree Days 14 28  
Month to date heating degree days 296  
Since 1 July heating degree days 5013  
Cooling Degree Days 0 0  
Month to date cooling degree days 0  
Year to date cooling degree days 0  
Growing Degree Days 2 (Base 50)    
Moisture  
Dew Point 37 °F    
Average Humidity 60    
Maximum Humidity 81    
Minimum Humidity 35    
Precipitation  
Precipitation 0.00 in 0.07 in 1.12 in (1990)
Month to date precipitation 0.60  
Sea Level Pressure  
Sea Level Pressure 29.75 in    
Wind  
Wind Speed 9 mph (SW)    
Max Wind Speed 15 mph    
Max Gust Speed -    
Visibility 10 miles    
Events      
T = Trace of Precipitation, MM = Missing Value Source: NWS Daily Summary

Daily Weather History Graph

Daily Weather History Graph

Search for Another Location

Airport or City:

Trip Planner

Search our weather history database for the weather conditions in past years. The results will help you decide how hot, cold, wet, or windy it might be!

Date:

Astronomy

Mar. 10, 2014 Rise Set
Actual Time 7:37 AM CDT 7:18 PM CDT
Civil Twilight 7:09 AM CDT 7:46 PM CDT
Nautical Twilight 6:38 AM CDT 8:18 PM CDT
Astronomical Twilight 6:05 AM CDT 8:50 PM CDT
Moon 2:01 PM CDT (3/10) 3:51 AM CDT (3/10)
Length of Visible Light 12h 36m
Length of Day
11h 41m
Waxing Gibbous, 70% of the Moon is Illuminated
Mar 10
Waxing Gibbous
Mar 16
Full
Mar 23
Last Quarter
Mar 30
New
Apr 7
First Quarter

Hourly Weather History & Observations

Time (CDT) Temp. Windchill Dew Point Humidity Pressure Visibility Wind Dir Wind Speed Gust Speed Precip Events Conditions
12:10 AM 46.4 °F 40.1 °F 33.8 °F 62% 29.83 in 10.0 mi SW 15.0 mph - N/A   Clear
12:35 AM 46.4 °F 40.4 °F 33.8 °F 62% 29.83 in 10.0 mi SW 13.8 mph - N/A   Clear
12:55 AM 44.6 °F 38.4 °F 33.8 °F 66% 29.82 in 10.0 mi SW 12.7 mph - N/A   Clear
1:15 AM 44.6 °F 38.1 °F 33.8 °F 66% 29.82 in 10.0 mi SW 13.8 mph - N/A   Clear
1:35 AM 42.8 °F 36.2 °F 33.8 °F 70% 29.82 in 10.0 mi SW 12.7 mph - N/A   Clear
1:55 AM 42.8 °F 36.2 °F 33.8 °F 70% 29.82 in 10.0 mi SW 12.7 mph - N/A   Clear
2:15 AM 42.8 °F 36.6 °F 32.0 °F 66% 29.82 in 10.0 mi SW 11.5 mph - N/A   Clear
2:35 AM 42.8 °F 38.0 °F 32.0 °F 66% 29.82 in 10.0 mi SW 8.1 mph - N/A   Clear
2:55 AM 41.0 °F 35.2 °F 32.0 °F 70% 29.81 in 10.0 mi SW 9.2 mph - N/A   Clear
3:15 AM 41.0 °F 34.7 °F 32.0 °F 70% 29.80 in 10.0 mi SW 10.4 mph - N/A   Clear
3:35 AM 42.8 °F 37.5 °F 32.0 °F 66% 29.80 in 10.0 mi SW 9.2 mph - N/A   Clear
3:55 AM 42.8 °F 37.5 °F 32.0 °F 66% 29.78 in 10.0 mi SW 9.2 mph - N/A   Clear
4:15 AM 42.8 °F 37.5 °F 32.0 °F 66% 29.78 in 10.0 mi SW 9.2 mph - N/A   Clear
4:35 AM 42.8 °F 38.0 °F 32.0 °F 66% 29.77 in 10.0 mi SW 8.1 mph - N/A   Clear
4:55 AM 41.0 °F 35.8 °F 32.0 °F 70% 29.77 in 10.0 mi SW 8.1 mph - N/A   Clear
5:15 AM 39.2 °F 33.6 °F 32.0 °F 75% 29.77 in 10.0 mi SSW 8.1 mph - N/A   Clear
5:35 AM 39.2 °F 34.2 °F 32.0 °F 75% 29.78 in 10.0 mi SW 6.9 mph - N/A   Clear
5:55 AM 39.2 °F 33.0 °F 32.0 °F 75% 29.77 in 10.0 mi SW 9.2 mph - N/A   Clear
6:15 AM 39.2 °F 34.2 °F 32.0 °F 75% 29.77 in 10.0 mi SW 6.9 mph - N/A   Clear
6:35 AM 39.2 °F 35.0 °F 32.0 °F 75% 29.77 in 10.0 mi SW 5.8 mph - N/A   Clear
6:55 AM 39.2 °F 33.6 °F 30.2 °F 70% 29.77 in 10.0 mi WSW 8.1 mph - N/A   Clear
7:15 AM 37.4 °F 31.4 °F 30.2 °F 75% 29.77 in 10.0 mi WSW 8.1 mph - N/A   Clear
7:35 AM 37.4 °F 32.1 °F 30.2 °F 75% 29.77 in 10.0 mi WSW 6.9 mph - N/A   Clear
7:55 AM 35.6 °F 30.7 °F 30.2 °F 81% 29.78 in 10.0 mi WSW 5.8 mph - N/A   Clear
8:15 AM 37.4 °F 32.1 °F 30.2 °F 75% 29.78 in 10.0 mi SW 6.9 mph - N/A   Clear
8:35 AM 37.4 °F 33.8 °F 32.0 °F 81% 29.77 in 10.0 mi WSW 4.6 mph - N/A   Clear
8:55 AM 39.2 °F 35.0 °F 32.0 °F 75% 29.77 in 10.0 mi WSW 5.8 mph - N/A   Clear
9:15 AM 41.0 °F 37.1 °F 32.0 °F 70% 29.77 in 10.0 mi SW 5.8 mph - N/A   Clear
9:35 AM 41.0 °F 35.8 °F 32.0 °F 70% 29.78 in 10.0 mi WSW 8.1 mph - N/A   Clear
9:55 AM 44.6 °F 39.7 °F 33.8 °F 66% 29.78 in 10.0 mi West 9.2 mph - N/A   Clear
10:15 AM 46.4 °F 42.4 °F 33.8 °F 62% 29.77 in 10.0 mi West 8.1 mph - N/A   Clear
10:35 AM 48.2 °F - 35.6 °F 62% 29.77 in 10.0 mi WSW 8.1 mph - N/A   Clear
10:55 AM 50.0 °F - 37.4 °F 62% 29.78 in 10.0 mi WNW 8.1 mph - N/A   Clear
11:15 AM 51.8 °F - 37.4 °F 58% 29.79 in 10.0 mi West 8.1 mph - N/A   Clear
11:35 AM 53.6 °F - 37.4 °F 54% 29.78 in 10.0 mi WNW 8.1 mph - N/A   Clear
11:55 AM 53.6 °F - 39.2 °F 58% 29.78 in 10.0 mi NW 6.9 mph - N/A   Clear
12:15 PM 55.4 °F - 39.2 °F 54% 29.78 in 10.0 mi WNW 5.8 mph - N/A   Clear
12:35 PM 57.2 °F - 39.2 °F 51% 29.78 in 10.0 mi West 5.8 mph - N/A   Clear
12:55 PM 59.0 °F - 41.0 °F 51% 29.78 in 10.0 mi WNW 4.6 mph - N/A   Clear
1:15 PM 60.8 °F - 41.0 °F 48% 29.78 in 10.0 mi West 5.8 mph - N/A   Clear
1:35 PM 60.8 °F - 41.0 °F 48% 29.76 in 10.0 mi WSW 4.6 mph - N/A   Clear
1:55 PM 62.6 °F - 41.0 °F 45% 29.76 in 10.0 mi West 5.8 mph - N/A   Clear
2:15 PM 62.6 °F - 41.0 °F 45% 29.75 in 10.0 mi West 6.9 mph - N/A   Clear
2:35 PM 64.4 °F - 41.0 °F 42% 29.74 in 10.0 mi West 5.8 mph - N/A   Clear
2:55 PM 64.4 °F - 41.0 °F 42% 29.73 in 10.0 mi Calm Calm - N/A   Clear
3:15 PM 66.2 °F - 41.0 °F 40% 29.73 in 10.0 mi Variable 4.6 mph - N/A   Clear
3:35 PM 66.2 °F - 41.0 °F 40% 29.72 in 10.0 mi WNW 5.8 mph - N/A   Clear
3:55 PM 68.0 °F - 41.0 °F 37% 29.72 in 10.0 mi WNW 4.6 mph - N/A   Clear
4:15 PM 66.2 °F - 41.0 °F 40% 29.71 in 10.0 mi Calm Calm - N/A   Clear
4:35 PM 66.2 °F - 41.0 °F 40% 29.71 in 10.0 mi Calm Calm - N/A   Clear
4:55 PM 68.0 °F - 41.0 °F 37% 29.71 in 10.0 mi NW 3.5 mph - N/A   Clear
5:15 PM 68.0 °F - 39.2 °F 35% 29.71 in 10.0 mi Calm Calm - N/A   Clear
5:35 PM 68.0 °F - 41.0 °F 37% 29.71 in 10.0 mi Calm Calm - N/A   Clear
5:50 PM 68.0 °F - 39.2 °F 35% 29.71 in 10.0 mi Calm Calm - N/A   Clear
6:15 PM 66.2 °F - 41.0 °F 40% 29.70 in 10.0 mi Calm Calm - N/A   Clear
6:35 PM 66.2 °F - 41.0 °F 40% 29.69 in 9.0 mi SE 4.6 mph - N/A   Clear
6:55 PM 62.6 °F - 42.8 °F 48% 29.70 in 8.0 mi ESE 5.8 mph - N/A   Clear
7:15 PM 60.8 °F - 42.8 °F 52% 29.70 in 10.0 mi SE 4.6 mph - N/A   Clear
7:35 PM 57.2 °F - 42.8 °F 59% 29.70 in 10.0 mi SSE 4.6 mph - N/A   Clear
7:55 PM 57.2 °F - 42.8 °F 59% 29.70 in 10.0 mi SE 4.6 mph - N/A   Clear
8:15 PM 55.4 °F - 41.0 °F 58% 29.70 in 10.0 mi SE 4.6 mph - N/A   Clear
8:35 PM 51.8 °F - 41.0 °F 67% 29.70 in 10.0 mi SSE 5.8 mph - N/A   Clear
8:55 PM 51.8 °F - 39.2 °F 62% 29.70 in 10.0 mi South 6.9 mph - N/A   Clear
9:15 PM 50.0 °F - 39.2 °F 66% 29.69 in 10.0 mi South 6.9 mph - N/A   Clear
9:35 PM 50.0 °F - 39.2 °F 66% 29.69 in 10.0 mi South 5.8 mph - N/A   Clear
9:55 PM 50.0 °F - 39.2 °F 66% 29.69 in 10.0 mi Calm Calm - N/A   Clear
10:15 PM 50.0 °F - 39.2 °F 66% 29.69 in 10.0 mi SSE 4.6 mph - N/A   Clear
10:35 PM 48.2 °F - 37.4 °F 66% 29.69 in 10.0 mi South 5.8 mph - N/A   Clear
10:55 PM 44.6 °F 41.4 °F 37.4 °F 76% 29.68 in 10.0 mi SSE 5.8 mph - N/A   Clear
11:15 PM 44.6 °F 41.4 °F 37.4 °F 76% 29.68 in 10.0 mi SE 5.8 mph - N/A   Clear
11:35 PM 44.6 °F 43.1 °F 35.6 °F 71% 29.67 in 10.0 mi ESE 3.5 mph - N/A   Clear
11:55 PM 46.4 °F 43.5 °F 35.6 °F 66% 29.66 in 10.0 mi ESE 5.8 mph - N/A   Partly Cloudy